| time (UTC) | temp C | wind direction | speed KPH | gust KPH | rain 1hr cm | rain 24hr cm | rain mn cm | humidity % | barometer mb |
| 20260507031904 | 12 | 276 | 3.2 | 4.8 | 0.00 | 0.00 | 0.00 | 81 | 1010.1 |
| 20260507030904 | 12 | 302 | 3.2 | 4.8 | 0.00 | 0.00 | 0.00 | 82 | 1010.0 |
| 20260507030404 | 12 | 60 | 4.8 | 9.7 | 0.00 | 0.00 | 0.00 | 80 | 1010.1 |
| 20260507024904 | 12 | 248 | 3.2 | 4.8 | 0.00 | 0.00 | 0.00 | 83 | 1010.0 |
| 20260507023904 | 12 | 262 | 4.8 | 4.8 | 0.00 | 0.00 | 0.00 | 82 | 1010.0 |
| 20260507021903 | 12 | 103 | 1.6 | 4.8 | 0.00 | 0.00 | 0.00 | 81 | 1009.9 |
| 20260507021404 | 12 | 115 | 1.6 | 4.8 | 0.00 | 0.00 | 0.00 | 81 | 1010.0 |
| 20260507020904 | 12 | 127 | 4.8 | 4.8 | 0.00 | 0.00 | 0.00 | 79 | 1010.0 |
| 20260507020404 | 13 | 78 | 3.2 | 4.8 | 0.00 | 0.00 | 0.00 | 79 | 1010.1 |
| 20260507013904 | 13 | 276 | 3.2 | 4.8 | 0.00 | 0.00 | 0.00 | 80 | 1010.1 |
| 20260507013404 | 13 | 259 | 4.8 | 9.7 | 0.00 | 0.00 | 0.00 | 79 | 1010.2 |
| 20260507011404 | 13 | 264 | 4.8 | 4.8 | 0.00 | 0.00 | 0.00 | 80 | 1010.2 |
| 20260507010904 | 13 | 286 | 4.8 | 9.7 | 0.00 | 0.00 | 0.00 | 78 | 1010.3 |
| 20260507010404 | 13 | 289 | 3.2 | 4.8 | 0.00 | 0.00 | 0.00 | 77 | 1010.3 |
| 20260507004904 | 13 | 320 | 1.6 | 4.8 | 0.00 | 0.00 | 0.00 | 79 | 1010.3 |
| 20260507004404 | 13 | 320 | 3.2 | 4.8 | 0.00 | 0.00 | 0.00 | 80 | 1010.3 |
| 20260507003904 | 13 | 320 | 3.2 | 4.8 | 0.00 | 0.00 | 0.00 | 79 | 1010.3 |
| 20260507001904 | 13 | 317 | 1.6 | 4.8 | 0.00 | 0.00 | 0.00 | 78 | 1010.4 |
| 20260507000904 | 14 | 331 | 1.6 | 3.2 | 0.00 | 0.00 | 0.00 | 78 | 1010.6 |
| 20260507000405 | 14 | 324 | 3.2 | 4.8 | 0.00 | 0.00 | 0.00 | 80 | 1010.6 |
| 20260506233904 | 14 | 341 | 3.2 | 4.8 | 0.00 | 0.00 | 0.00 | 78 | 1010.9 |
| 20260506233404 | 14 | 351 | 4.8 | 4.8 | 0.00 | 0.00 | 0.00 | 77 | 1011.1 |
| 20260506231404 | 14 | 355 | 3.2 | 4.8 | 0.00 | 0.00 | 0.00 | 77 | 1011.0 |
| 20260506230904 | 15 | 347 | 3.2 | 4.8 | 0.00 | 0.00 | 0.00 | 78 | 1011.1 |
| 20260506230404 | 15 | 0 | 0.0 | 4.8 | 0.00 | 0.00 | 0.00 | 81 | 1011.1 |
| 20260506221904 | 15 | 310 | 1.6 | 4.8 | 0.00 | 0.00 | 0.00 | 77 | 1010.9 |
| 20260506221404 | 15 | 63 | 0.0 | 0.0 | 0.00 | 0.00 | 0.00 | 78 | 1011.0 |
| 20260506220903 | 15 | 67 | 0.0 | 1.6 | 0.00 | 0.00 | 0.00 | 78 | 1010.9 |
| 20260506214904 | 15 | 29 | 3.2 | 4.8 | 0.00 | 0.00 | 0.00 | 77 | 1010.9 |
| 20260506213404 | 15 | 30 | 0.0 | 1.6 | 0.00 | 0.00 | 0.00 | 75 | 1011.1 |
| 20260506210903 | 16 | 121 | 1.6 | 4.8 | 0.00 | 0.00 | 0.00 | 74 | 1010.9 |
| 20260506204404 | 16 | 149 | 1.6 | 4.8 | 0.00 | 0.00 | 0.00 | 71 | 1010.6 |
| 20260506203404 | 16 | 122 | 4.8 | 9.7 | 0.00 | 0.00 | 0.00 | 73 | 1010.5 |
| 20260506201904 | 16 | 110 | 8.0 | 11.3 | 0.00 | 0.00 | 0.00 | 75 | 1010.4 |
| 20260506201403 | 16 | 97 | 8.0 | 11.3 | 0.00 | 0.00 | 0.00 | 74 | 1010.3 |
| 20260506194404 | 17 | 180 | 1.6 | 4.8 | 0.00 | 0.00 | 0.00 | 61 | 1009.7 |
| 20260506193904 | 17 | 158 | 1.6 | 4.8 | 0.00 | 0.00 | 0.00 | 58 | 1009.7 |
| 20260506193404 | 17 | 134 | 1.6 | 9.7 | 0.00 | 0.00 | 0.00 | 57 | 1009.6 |
| 20260506190404 | 18 | 118 | 3.2 | 4.8 | 0.00 | 0.00 | 0.00 | 49 | 1009.3 |
| 20260506184904 | 19 | 105 | 3.2 | 4.8 | 0.00 | 0.00 | 0.00 | 46 | 1009.1 |
| 20260506183404 | 18 | 126 | 1.6 | 4.8 | 0.00 | 0.00 | 0.00 | 46 | 1009.0 |
| 20260506181904 | 18 | 116 | 1.6 | 4.8 | 0.00 | 0.00 | 0.00 | 48 | 1008.9 |
| 20260506181404 | 18 | 120 | 3.2 | 8.0 | 0.00 | 0.00 | 0.00 | 48 | 1009.0 |
| 20260506173404 | 19 | 121 | 4.8 | 19.3 | 0.00 | 0.00 | 0.00 | 47 | 1009.1 |
| 20260506171904 | 19 | 44 | 11.3 | 22.5 | 0.00 | 0.00 | 0.00 | 46 | 1009.1 |
| 20260506170403 | 20 | 101 | 8.0 | 19.3 | 0.00 | 0.00 | 0.00 | 45 | 1009.0 |
| 20260506164904 | 20 | 85 | 4.8 | 19.3 | 0.00 | 0.00 | 0.00 | 44 | 1009.0 |
| 20260506163904 | 20 | 104 | 11.3 | 24.1 | 0.00 | 0.00 | 0.00 | 43 | 1009.1 |
| 20260506163403 | 20 | 152 | 9.7 | 22.5 | 0.00 | 0.00 | 0.00 | 42 | 1009.1 |
| 20260506161903 | 21 | 133 | 6.4 | 19.3 | 0.00 | 0.00 | 0.00 | 40 | 1009.1 |
| 20260506161404 | 21 | 84 | 4.8 | 20.9 | 0.00 | 0.00 | 0.00 | 39 | 1009.1 |
| 20260506160403 | 20 | 294 | 8.0 | 22.5 | 0.00 | 0.00 | 0.00 | 41 | 1009.0 |
| 20260506153403 | 20 | 112 | 8.0 | 27.4 | 0.00 | 0.00 | 0.00 | 40 | 1009.3 |
| 20260506151904 | 21 | 148 | 4.8 | 19.3 | 0.00 | 0.00 | 0.00 | 39 | 1009.3 |
| 20260506151404 | 21 | 112 | 4.8 | 19.3 | 0.00 | 0.00 | 0.00 | 38 | 1009.2 |
| 20260506150904 | 21 | 86 | 6.4 | 16.1 | 0.00 | 0.00 | 0.00 | 38 | 1009.3 |
| 20260506143403 | 21 | 123 | 9.7 | 32.2 | 0.00 | 0.00 | 0.00 | 37 | 1009.5 |
| 20260506141903 | 21 | 113 | 19.3 | 32.2 | 0.00 | 0.00 | 0.00 | 36 | 1009.6 |
| 20260506134403 | 22 | 127 | 17.7 | 32.2 | 0.00 | 0.00 | 0.00 | 36 | 1009.9 |
| 20260506133904 | 22 | 125 | 14.5 | 29.0 | 0.00 | 0.00 | 0.00 | 35 | 1009.9 |
| 20260506130404 | 21 | 127 | 16.1 | 32.2 | 0.00 | 0.00 | 0.00 | 37 | 1009.9 |
| 20260506124904 | 21 | 130 | 17.7 | 35.4 | 0.00 | 0.00 | 0.00 | 34 | 1010.0 |
| 20260506124404 | 22 | 127 | 19.3 | 32.2 | 0.00 | 0.00 | 0.00 | 35 | 1010.0 |
| 20260506123404 | 22 | 114 | 19.3 | 33.8 | 0.00 | 0.00 | 0.00 | 34 | 1010.1 |
| 20260506121403 | 22 | 120 | 14.5 | 29.0 | 0.00 | 0.00 | 0.00 | 32 | 1010.1 |
| 20260506114903 | 22 | 96 | 14.5 | 29.0 | 0.00 | 0.00 | 0.00 | 35 | 1010.2 |
| 20260506111404 | 22 | 121 | 11.3 | 22.5 | 0.00 | 0.00 | 0.00 | 33 | 1010.4 |
| 20260506094904 | 21 | 125 | 9.7 | 19.3 | 0.00 | 0.00 | 0.00 | 39 | 1010.8 |
| 20260506093903 | 21 | 111 | 12.9 | 19.3 | 0.00 | 0.00 | 0.00 | 40 | 1010.8 |
| 20260506093403 | 21 | 143 | 14.5 | 20.9 | 0.00 | 0.00 | 0.00 | 38 | 1010.9 |
| 20260506090904 | 21 | 97 | 11.3 | 20.9 | 0.00 | 0.00 | 0.00 | 36 | 1010.6 |
| 20260506084404 | 21 | 115 | 9.7 | 16.1 | 0.00 | 0.00 | 0.00 | 36 | 1010.6 |
| 20260506081904 | 20 | 73 | 3.2 | 9.7 | 0.00 | 0.00 | 0.00 | 36 | 1010.6 |
| 20260506081404 | 20 | 64 | 3.2 | 8.0 | 0.00 | 0.00 | 0.00 | 39 | 1010.5 |
| 20260506071904 | 18 | 21 | 0.0 | 1.6 | 0.00 | 0.00 | 0.00 | 41 | 1010.3 |
| 20260506070903 | 17 | 68 | 0.0 | 4.8 | 0.00 | 0.00 | 0.00 | 42 | 1010.2 |
| 20260506061904 | 17 | 329 | 4.8 | 16.1 | 0.00 | 0.00 | 0.00 | 43 | 1010.3 |
| 20260506061403 | 17 | 334 | 9.7 | 19.3 | 0.00 | 0.00 | 0.00 | 42 | 1010.4 |
| 20260506060403 | 17 | 295 | 14.5 | 19.3 | 0.00 | 0.00 | 0.00 | 43 | 1010.3 |
| 20260506050903 | 16 | 44 | 8.0 | 16.1 | 0.00 | 0.00 | 0.00 | 43 | 1009.8 |
| 20260506050404 | 16 | 45 | 11.3 | 19.3 | 0.00 | 0.00 | 0.00 | 43 | 1009.8 |
| 20260506044404 | 16 | 3 | 4.8 | 12.9 | 0.00 | 0.00 | 0.00 | 42 | 1009.7 |
| 20260506043404 | 16 | 2 | 6.4 | 14.5 | 0.00 | 0.00 | 0.00 | 43 | 1009.9 |
| 20260506041903 | 16 | 343 | 4.8 | 16.1 | 0.00 | 0.00 | 0.00 | 43 | 1010.0 |
| 20260506040404 | 16 | 347 | 6.4 | 16.1 | 0.00 | 0.00 | 0.00 | 42 | 1009.9 |
| 20260506033903 | 16 | 297 | 6.4 | 14.5 | 0.00 | 0.00 | 0.00 | 43 | 1009.9 |